Cloud_Cover
98 100 100 100 100 100 100 100 100 100 100 100 100 99 100 15 42 7 22 59 5 9 12 63 100 100 100 100 100 91 39 5 0 0 0 0 1 0 0 0 0 0 0
100 100 85 100 100 100 100 100 100 100 100 100 100 93 92 37 4 21 5 14 5 5 30 99 89 30 27 5 26 28 6 5 1 0 0 0 0 0 0 0 0 0 0
98 97 63 100 98 100 100 100 100 93 83 100 100 100 100 34 0 2 5 5 5 5 5 54 22 0 3 5 5 5 9 7 1 0 0 0 0 0 0 0 0 0 0
100 90 86 92 98 56 99 100 100 100 100 100 100 97 100 49 70 1 0 5 5 16 51 10 2 0 0 2 5 5 62 64 5 5 2 0 0 0 0 0 0 0 0
98 100 99 57 77 100 91 100 100 100 100 100 100 100 100 100 80 5 3 16 5 5 56 81 5 0 0 0 1 5 3 5 5 5 5 0 0 0 0 0 0 0 0
98 100 100 100 87 98 100 100 100 100 100 100 100 100 100 100 100 44 5 22 5 20 10 100 38 3 0 0 0 0 5 0 0 0 0 0 0 0 0 0 0 0 0
100 99 10 78 62 99 100 100 100 100 100 100 92 100 100 100 100 98 13 7 5 22 96 97 39 5 3 0 2 0 0 0 0 0 0 0 0 0 0 0 0 0 0
91 100 45 64 19 52 100 100 100 100 100 99 100 95 99 100 100 100 100 90 5 5 14 5 5 5 4 0 0 0 0 0 0 0 0 0 0 0 0 0 0 0 0
100 98 90 98 6 9 97 100 100 100 100 100 100 100 100 95 100 100 100 99 5 5 3 5 5 3 3 3 0 0 0 0 2 0 0 0 0 0 0 0 0 0 0
100 73 20 23 48 61 100 36 96 100 100 100 100 100 100 100 100 100 100 100 99 4 34 2 94 8 2 0 0 0 0 0 0 0 0 0 0 0 0 0 0 0 0
69 18 10 5 17 5 42 54 89 100 100 100 90 100 100 100 100 100 100 100 100 96 5 5 5 32 8 0 0 0 0 0 0 0 0 0 0 0 0 0 0 0 0
100 100 35 5 5 15 6 63 26 94 100 100 100 100 100 100 100 100 98 100 100 100 100 39 4 5 4 4 2 62 0 0 0 0 0 0 0 0 0 0 0 0 2
13 2 20 5 5 48 42 18 5 11 100 98 100 100 100 100 100 100 100 100 97 95 100 75 8 52 18 0 1 80 48 0 0 0 0 0 0 0 0 0 0 0 0
5 0 0 3 17 36 65 6 5 10 5 29 72 100 99 100 100 100 100 100 100 100 100 100 100 100 98 100 4 4 1 0 0 4 0 0 0 0 0 0 0 0 0
7 28 4 87 100 100 100 100 100 100 94 33 97 97 80 95 100 100 100 100 100 100 100 100 100 100 100 100 13 17 4 0 0 5 5 0 0 0 0 0 0 0 0
5 5 69 100 100 94 36 84 100 100 100 31 61 100 70 54 100 99 100 100 100 100 100 100 100 100 100 100 100 100 89 5 3 0 3 5 5 4 5 5 0 4 5
4 5 97 100 100 96 100 21 96 48 100 90 100 100 50 6 100 24 100 100 100 96 100 100 100 100 100 100 76 100 100 86 88 54 4 5 4 5 5 5 4 5 5
0 0 71 100 100 41 100 100 100 77 24 96 68 17 80 6 5 5 84 100 100 96 100 100 100 100 96 99 45 71 100 100 12 6 54 5 10 19 4 5 5 5 5
0 0 5 72 100 100 100 99 100 84 100 84 39 5 5 5 5 5 5 56 83 60 100 100 100 100 100 87 100 100 100 100 86 5 4 4 35 98 44 28 4 4 5
5 0 4 8 86 100 100 98 100 96 6 12 5 5 5 5 5 4 5 1 5 5 99 100 100 100 100 100 100 100 100 100 99 100 61 82 97 33 5 10 4 4 37
100 79 2 6 46 95 45 100 100 100 50 9 5 5 5 5 5 5 6 42 5 3 14 100 100 100 100 100 100 100 100 100 93 80 98 93 100 90 46 32 52 97 100
100 100 68 3 0 24 8 43 53 86 93 5 5 5 10 9 5 53 12 5 7 5 5 10 100 87 100 100 100 100 100 100 100 98 69 93 70 5 5 7 5 6 5
100 100 100 66 2 0 1 38 74 83 5 5 5 42 5 28 5 5 5 32 100 32 5 18 5 6 97 99 99 100 100 94 96 100 100 69 12 33 46 69 58 100 87
95 100 100 99 20 1 0 1 5 5 5 5 5 5 5 86 5 5 5 44 97 99 0 2 30 29 57 69 96 75 79 58 100 69 65 24 100 100 100 100 100 100 68
7 2 85 100 62 19 0 0 0 5 5 5 5 0 1 5 76 33 5 7 31 11 3 2 0 20 5 19 68 63 26 33 46 100 61 41 100 100 72 86 67 52 4
0 0 0 13 95 22 99 82 35 3 5 5 4 0 0 0 5 66 12 5 23 13 1 0 5 48 64 20 29 8 72 18 99 100 100 93 64 95 71 37 37 31 73